星链-37462(STARLINK-37462)

导读

STARLINK-37462(NORAD编号68822)是美国SpaceX公司星链(Starlink)卫星互联网星座的成员,属于低轨通信卫星。星链项目旨在通过大规模低轨卫星组网,为全球提供高速低延迟的互联网接入服务,重点覆盖地面基础设施难以到达的偏远地区、海洋和空域。作为星链星座的一员,该卫星运行于近地轨道,是SpaceX持续扩展星座部署过程中发射的卫星之一,承担着星座网络的通信转发功能,助力实现全球网络覆盖,推动卫星互联网服务的普及,同时星链的大规模部署也引发了关于太空交通和天文观测的相关讨论。

基本信息
目录编号:
68822
目录名称:
STARLINK-37462
国际标识:
2026-089W
轨道中心:
EARTH
卫星名称:
星链-37462
卫星全名:
星链-37462(STARLINK-37462)
卫星状态:
在轨 (已飞行141 天)
发射日期:
2026-04-23 UTC
国别 :
美国 (US)
星等 :
--
该卫星已列入 空间交会检测服务 Space Conjunction Data Service (SCDS) ,当前飞行风险评估等级: 无高风险
轨道信息
数据来源 国际轨道数据 AOE轨道数据
星历时间 2026-09-11T21:45:33+0800
7小时前
查看轨道信息
2026-09-09T23:00:00+0800
2天前
查看轨道信息
半长轴 6843.7km 6843.701km
偏心率 0.0002167 0.0002258
轨道倾角 97.282° 97.282°
近地点辐角 80.214° 77.121°
升交点赤经 100.502° 98.582°
平近点角 279.935° 334.627°
近地点 464.079km 464.018km
远地点 467.047km 467.11km
周期 93.907分钟 93.907分钟
每日圈数 15.334384 15.334383
详细信息
固有亮度:
5
最大亮度:
2.5
卫星平台:
Starlink V1.0
覆盖范围:
全球
运营商:
太空探索技术公司
运营商所在国:
美国
制造商(研发单位):
太空探索技术公司
制造商所在国:
美国
使用方式:
暂无
卫星简介
Starlink 计划是 SpaceX 推出的全球卫星互联网项目,通过发射低轨道卫星,为全球尤其是偏远地区提供高速、低延迟的互联网服务。自 2019 年起,Starlink 已部署数千颗卫星,旨在缩小全球数字鸿沟,推动互联网普及。该项目还为军事、航空等行业提供通信支持,带来广泛经济效益。
2D轨道图
3D轨道图
轨道高度分析图
轨道倾角分析图
轨道综合分析图
查看轨道综合分析图
交会数据列表
事件ID 空间交会对象 最接近时刻(TCA) 交会距离 交会风险概率(CRP) 交会风险指数(CRI) 操作
CDM_260910-061204-835906-882221
2026-09-10T
06:12:40+0000
1.119 km
极远距离
1.686314E-5 中风险 0.6
CDM_260913-051606-788206-882221
2026-09-13T
05:16:19+0000
1.225 km
极远距离
1.039906E-5 中风险 0.55
CDM_260912-055806-569506-882221
2026-09-12T
05:58:05+0000
1.692 km
极远距离
3.925055E-6 低风险 0.47
CDM_260912-043106-026206-882221
2026-09-12T
04:31:43+0000
1.824 km
极远距离
3.642894E-6 低风险 0.46
CDM_260913-042906-788206-882221
2026-09-13T
04:29:20+0000
2.069 km
极远距离
2.09822E-6 低风险 0.41
CDM_260911-155505-377506-882221
2026-09-11T
15:55:33+0000
2.075 km
极远距离
1.770316E-6 低风险 0.4
CDM_260913-061704-743706-882221
2026-09-13T
06:17:45+0000
2.536 km
极远距离
1.727905E-6 低风险 0.4
CDM_260913-025506-788206-882221
2026-09-13T
02:55:22+0000
2.273 km
极远距离
1.699605E-6 低风险 0.4
CDM_260911-235904-869306-882222
2026-09-11T
23:59:15+0000
2.757 km
极远距离
1.493094E-6 低风险 0.38
CDM_260912-112904-743606-882221
OBJECT Z (47436)
2026-09-12T
11:29:28+0000
2.854 km
极远距离
1.438583E-6 低风险 0.38
与全量物体交会距离演化趋势
与全量物体交会风险概率演化趋势